| time (UTC) | temp C | wind direction | speed KPH | gust KPH | rain 1hr cm | rain 24hr cm | rain mn cm | humidity % | barometer mb |
| 20260507163019 | 8 | 360 | 11.3 | 17.7 | 0.00 | 0.00 | 0.00 | 56 | 1013.9 |
| 20260507161559 | 8 | 360 | 9.7 | 17.7 | 0.00 | 0.00 | 0.00 | 54 | 1014.1 |
| 20260507160017 | 7 | 360 | 9.7 | 17.7 | 0.00 | 0.00 | 0.00 | 58 | 1014.2 |
| 20260507154555 | 6 | 360 | 6.4 | 12.9 | 0.00 | 0.00 | 0.00 | 65 | 1014.2 |
| 20260507153048 | 6 | 360 | 8.0 | 14.5 | 0.00 | 0.00 | 0.00 | 70 | 1014.2 |
| 20260507151515 | 5 | 360 | 4.8 | 12.9 | 0.00 | 0.00 | 0.00 | 70 | 1014.2 |
| 20260507150033 | 5 | 360 | 4.8 | 9.7 | 0.00 | 0.00 | 0.00 | 68 | 1014.1 |
| 20260507144509 | 5 | 360 | 4.8 | 9.7 | 0.00 | 0.00 | 0.00 | 72 | 1014.1 |
| 20260507143047 | 5 | 360 | 4.8 | 9.7 | 0.00 | 0.00 | 0.00 | 70 | 1014.3 |
| 20260507141525 | 5 | 360 | 3.2 | 11.3 | 0.00 | 0.00 | 0.00 | 69 | 1014.3 |
| 20260507140106 | 5 | 360 | 4.8 | 11.3 | 0.00 | 0.00 | 0.00 | 68 | 1014.3 |
| 20260507134525 | 5 | 360 | 3.2 | 9.7 | 0.00 | 0.00 | 0.00 | 67 | 1014.3 |
| 20260507133005 | 5 | 360 | 6.4 | 12.9 | 0.00 | 0.00 | 0.00 | 66 | 1014.2 |
| 20260507131539 | 5 | 360 | 8.0 | 14.5 | 0.00 | 0.00 | 0.00 | 68 | 1014.1 |
| 20260507130111 | 5 | 360 | 6.4 | 11.3 | 0.00 | 0.00 | 0.00 | 70 | 1014.1 |
| 20260507130001 | 5 | 360 | 6.4 | 11.3 | 0.00 | 0.00 | 0.00 | 70 | 1014.0 |
| 20260507124546 | 5 | 360 | 1.6 | 9.7 | 0.00 | 0.00 | 0.00 | 72 | 1014.0 |
| 20260507123014 | 5 | 360 | 6.4 | 12.9 | 0.00 | 0.00 | 0.00 | 74 | 1013.9 |
| 20260507121553 | 5 | 360 | 9.7 | 14.5 | 0.00 | 0.00 | 0.00 | 75 | 1013.8 |
| 20260507120012 | 4 | 360 | 3.2 | 8.0 | 0.00 | 0.00 | 0.00 | 74 | 1013.5 |
| 20260507114549 | 3 | 360 | 0.0 | 3.2 | 0.00 | 0.00 | 0.00 | 79 | 1013.3 |
| 20260507113034 | 1 | 360 | 0.0 | 4.8 | 0.00 | 0.00 | 0.00 | 84 | 1013.2 |
| 20260507111516 | 0 | 360 | 0.0 | 4.8 | 0.00 | 0.00 | 0.00 | 88 | 1013.0 |
| 20260507110031 | -1 | 360 | 0.0 | 1.6 | 0.00 | 0.00 | 0.00 | 90 | 1012.8 |
| 20260507104512 | -1 | 360 | 0.0 | 3.2 | 0.00 | 0.00 | 0.00 | 89 | 1012.7 |
| 20260507103054 | -1 | 360 | 0.0 | 3.2 | 0.00 | 0.00 | 0.00 | 89 | 1012.7 |
| 20260507101544 | 0 | 360 | 0.0 | 3.2 | 0.00 | 0.00 | 0.00 | 90 | 1012.6 |
| 20260507100056 | 0 | 360 | 0.0 | 0.0 | 0.00 | 0.00 | 0.00 | 89 | 1012.6 |
| 20260507094528 | 0 | 360 | 0.0 | 0.0 | 0.00 | 0.00 | 0.00 | 89 | 1012.6 |
| 20260507093007 | 0 | 360 | 0.0 | 3.2 | 0.00 | 0.00 | 0.00 | 88 | 1012.8 |
| 20260507091548 | 0 | 360 | 0.0 | 3.2 | 0.00 | 0.00 | 0.00 | 87 | 1012.9 |
| 20260507090006 | 0 | 360 | 0.0 | 0.0 | 0.00 | 0.00 | 0.00 | 87 | 1012.9 |
| 20260507084552 | 0 | 360 | 0.0 | 3.2 | 0.00 | 0.00 | 0.00 | 88 | 1013.0 |
| 20260507083033 | 1 | 360 | 0.0 | 0.0 | 0.00 | 0.00 | 0.00 | 84 | 1012.9 |
| 20260507081558 | 1 | 360 | 0.0 | 0.0 | 0.00 | 0.00 | 0.00 | 84 | 1012.9 |
| 20260507080014 | 2 | 360 | 0.0 | 1.6 | 0.00 | 0.00 | 0.00 | 82 | 1013.0 |
| 20260507074600 | 2 | 360 | 0.0 | 4.8 | 0.00 | 0.00 | 0.00 | 81 | 1013.0 |
| 20260507073034 | 3 | 360 | 0.0 | 6.4 | 0.00 | 0.00 | 0.00 | 80 | 1013.0 |
| 20260507071510 | 3 | 360 | 0.0 | 3.2 | 0.00 | 0.00 | 0.00 | 79 | 1013.1 |
| 20260507070033 | 3 | 360 | 0.0 | 6.4 | 0.00 | 0.00 | 0.00 | 79 | 1013.1 |
| 20260507064510 | 3 | 360 | 1.6 | 6.4 | 0.00 | 0.00 | 0.00 | 79 | 1013.3 |
| 20260507063054 | 4 | 360 | 1.6 | 6.4 | 0.00 | 0.00 | 0.00 | 80 | 1013.4 |
| 20260507061527 | 4 | 360 | 1.6 | 6.4 | 0.00 | 0.00 | 0.00 | 79 | 1013.3 |
| 20260507060047 | 4 | 360 | 1.6 | 8.0 | 0.00 | 0.00 | 0.00 | 79 | 1013.5 |
| 20260507054525 | 5 | 360 | 3.2 | 12.9 | 0.00 | 0.00 | 0.00 | 76 | 1013.5 |
| 20260507053006 | 5 | 360 | 6.4 | 12.9 | 0.00 | 0.00 | 0.00 | 71 | 1013.5 |
| 20260507051537 | 5 | 360 | 3.2 | 22.5 | 0.00 | 0.00 | 0.00 | 69 | 1013.7 |
| 20260507050005 | 6 | 360 | 6.4 | 17.7 | 0.00 | 0.00 | 0.00 | 67 | 1013.6 |
| 20260507044545 | 6 | 360 | 6.4 | 12.9 | 0.00 | 0.00 | 0.00 | 67 | 1013.6 |
| 20260507043029 | 6 | 360 | 3.2 | 12.9 | 0.00 | 0.00 | 0.00 | 67 | 1013.5 |
| 20260507041607 | 6 | 360 | 3.2 | 8.0 | 0.00 | 0.00 | 0.00 | 71 | 1013.5 |
| 20260507041502 | 6 | 360 | 3.2 | 8.0 | 0.00 | 0.00 | 0.00 | 71 | 1013.5 |
| 20260507040019 | 5 | 360 | 4.8 | 12.9 | 0.00 | 0.00 | 0.00 | 77 | 1013.6 |
| 20260507034557 | 5 | 360 | 3.2 | 8.0 | 0.00 | 0.00 | 0.00 | 77 | 1013.6 |
| 20260507033029 | 5 | 360 | 6.4 | 14.5 | 0.00 | 0.00 | 0.00 | 73 | 1013.5 |
| 20260507031510 | 6 | 360 | 4.8 | 9.7 | 0.00 | 0.00 | 0.00 | 68 | 1013.5 |
| 20260507030031 | 6 | 360 | 6.4 | 11.3 | 0.00 | 0.00 | 0.00 | 68 | 1013.4 |
| 20260507024509 | 6 | 360 | 6.4 | 14.5 | 0.00 | 0.00 | 0.00 | 68 | 1013.3 |
| 20260507023049 | 6 | 360 | 6.4 | 12.9 | 0.00 | 0.00 | 0.00 | 67 | 1013.4 |
| 20260507021528 | 6 | 360 | 6.4 | 12.9 | 0.00 | 0.00 | 0.00 | 66 | 1013.2 |
| 20260507020056 | 6 | 360 | 4.8 | 11.3 | 0.00 | 0.00 | 0.00 | 65 | 1013.3 |
| 20260507014527 | 6 | 360 | 4.8 | 14.5 | 0.00 | 0.00 | 0.00 | 66 | 1013.3 |
| 20260507013002 | 6 | 360 | 9.7 | 14.5 | 0.00 | 0.00 | 0.00 | 65 | 1013.2 |
| 20260507011554 | 6 | 360 | 9.7 | 16.1 | 0.00 | 0.00 | 0.00 | 63 | 1013.2 |
| 20260507010005 | 6 | 360 | 6.4 | 12.9 | 0.00 | 0.00 | 0.00 | 62 | 1013.2 |
| 20260507004544 | 6 | 360 | 9.7 | 17.7 | 0.00 | 0.00 | 0.00 | 61 | 1013.1 |
| 20260507003024 | 6 | 360 | 8.0 | 14.5 | 0.00 | 0.00 | 0.00 | 60 | 1012.9 |
| 20260507001504 | 6 | 360 | 6.4 | 16.1 | 0.00 | 0.00 | 0.00 | 59 | 1012.9 |
| 20260507000023 | 6 | 360 | 9.7 | 12.9 | 0.00 | 0.00 | 0.00 | 57 | 1012.8 |
| 20260506234603 | 7 | 360 | 4.8 | 12.9 | 0.00 | 0.00 | 0.00 | 57 | 1012.9 |
| 20260506234502 | 6 | 360 | 4.8 | 12.9 | 0.00 | 0.00 | 0.00 | 57 | 1012.8 |
| 20260506233039 | 7 | 360 | 8.0 | 16.1 | 0.00 | 0.00 | 0.00 | 55 | 1012.9 |
| 20260506231516 | 7 | 360 | 8.0 | 12.9 | 0.00 | 0.00 | 0.00 | 55 | 1012.9 |
| 20260506230044 | 7 | 360 | 8.0 | 16.1 | 0.00 | 0.00 | 0.00 | 53 | 1012.9 |
| 20260506224524 | 7 | 360 | 9.7 | 14.5 | 0.00 | 0.00 | 0.00 | 52 | 1012.9 |
| 20260506223054 | 8 | 360 | 11.3 | 16.1 | 0.00 | 0.00 | 0.00 | 52 | 1013.0 |
| 20260506221530 | 8 | 360 | 8.0 | 14.5 | 0.00 | 0.00 | 0.00 | 50 | 1013.1 |
| 20260506220058 | 8 | 360 | 8.0 | 14.5 | 0.00 | 0.00 | 0.00 | 51 | 1013.1 |
| 20260506214530 | 8 | 360 | 6.4 | 14.5 | 0.00 | 0.00 | 0.00 | 52 | 1013.0 |
| 20260506213013 | 8 | 360 | 8.0 | 16.1 | 0.00 | 0.00 | 0.00 | 52 | 1013.0 |
| 20260506211548 | 8 | 360 | 8.0 | 14.5 | 0.00 | 0.00 | 0.00 | 54 | 1013.1 |
| 20260506210012 | 8 | 360 | 6.4 | 22.5 | 0.00 | 0.00 | 0.00 | 54 | 1013.2 |
| 20260506204551 | 8 | 360 | 8.0 | 20.9 | 0.00 | 0.00 | 0.00 | 53 | 1013.2 |
| 20260506203033 | 9 | 360 | 8.0 | 25.7 | 0.00 | 0.00 | 0.00 | 51 | 1013.2 |
| 20260506201506 | 9 | 360 | 6.4 | 19.3 | 0.00 | 0.00 | 0.00 | 52 | 1013.3 |
| 20260506200026 | 9 | 360 | 6.4 | 17.7 | 0.00 | 0.00 | 0.00 | 53 | 1013.2 |
| 20260506194510 | 9 | 360 | 9.7 | 17.7 | 0.00 | 0.00 | 0.00 | 51 | 1013.4 |
| 20260506193044 | 9 | 360 | 8.0 | 19.3 | 0.00 | 0.00 | 0.00 | 48 | 1013.2 |
| 20260506191524 | 8 | 360 | 8.0 | 16.1 | 0.00 | 0.00 | 0.00 | 52 | 1013.3 |
| 20260506190049 | 9 | 360 | 9.7 | 17.7 | 0.00 | 0.00 | 0.00 | 51 | 1013.1 |
| 20260506184520 | 9 | 360 | 6.4 | 12.9 | 0.00 | 0.00 | 0.00 | 51 | 1013.1 |
| 20260506183110 | 8 | 360 | 4.8 | 17.7 | 0.00 | 0.00 | 0.00 | 53 | 1013.2 |
| 20260506181534 | 8 | 360 | 9.7 | 14.5 | 0.00 | 0.00 | 0.00 | 53 | 1013.3 |
| 20260506180058 | 8 | 360 | 6.4 | 12.9 | 0.00 | 0.00 | 0.00 | 51 | 1013.2 |
| 20260506174533 | 9 | 360 | 6.4 | 14.5 | 0.00 | 0.00 | 0.00 | 53 | 1013.3 |
| 20260506173014 | 9 | 360 | 9.7 | 16.1 | 0.00 | 0.00 | 0.00 | 54 | 1013.5 |
| 20260506171548 | 8 | 360 | 8.0 | 19.3 | 0.00 | 0.00 | 0.00 | 53 | 1013.6 |
| 20260506170008 | 8 | 360 | 8.0 | 17.7 | 0.00 | 0.00 | 0.00 | 55 | 1013.6 |
| 20260506164549 | 8 | 360 | 6.4 | 16.1 | 0.00 | 0.00 | 0.00 | 52 | 1013.6 |